Time,TemperatureF,DewpointF,PressureIn,WindDirection,WindDirectionDegrees,WindSpeedMPH,WindSpeedGustMPH,Humidity,HourlyPrecipIn,Conditions,Clouds,dailyrainin,SoftwareType,DateUTC
2013-05-06 00:06:00,52.9,52.6,29.63,ENE,67,3.2,-999.0,99,-99.99,,,0.00,Acu-Link.com,2013-05-06 04:06:00,
2013-05-06 00:21:00,52.9,52.6,29.63,ENE,67,4.7,-999.0,99,-99.99,,,0.00,Acu-Link.com,2013-05-06 04:21:00,
2013-05-06 00:36:00,53.2,52.9,29.63,NNE,22,5.8,-999.0,99,-99.99,,,0.00,Acu-Link.com,2013-05-06 04:36:00,
2013-05-06 00:51:00,53.6,53.3,29.63,NE,45,5.8,-999.0,99,-99.99,,,0.00,Acu-Link.com,2013-05-06 04:51:00,
2013-05-06 01:06:00,53.6,53.3,29.63,ENE,67,2.7,-999.0,99,-99.99,,,0.00,Acu-Link.com,2013-05-06 05:06:00,
2013-05-06 01:22:00,53.6,53.3,29.63,ENE,67,4.7,-999.0,99,-99.99,,,0.00,Acu-Link.com,2013-05-06 05:22:00,
2013-05-06 01:37:00,53.6,53.3,29.62,East,90,4.2,-999.0,99,-99.99,,,0.00,Acu-Link.com,2013-05-06 05:37:00,
2013-05-06 01:52:00,53.4,53.1,29.62,ENE,67,4.2,-999.0,99,-99.99,,,0.01,Acu-Link.com,2013-05-06 05:52:00,
2013-05-06 02:07:00,53.4,53.1,29.61,NNE,22,8.9,-999.0,99,-99.99,,,0.02,Acu-Link.com,2013-05-06 06:07:00,
2013-05-06 02:22:00,53.4,53.1,29.62,ENE,67,5.3,-999.0,99,-99.99,,,0.02,Acu-Link.com,2013-05-06 06:22:00,
2013-05-06 02:37:00,53.6,53.3,29.61,ENE,67,3.7,-999.0,99,-99.99,,,0.02,Acu-Link.com,2013-05-06 06:37:00,
2013-05-06 02:52:00,53.4,53.1,29.61,ENE,67,3.2,-999.0,99,-99.99,,,0.03,Acu-Link.com,2013-05-06 06:52:00,
2013-05-06 03:08:00,53.4,53.1,29.60,North,0,4.7,-999.0,99,-99.99,,,0.04,Acu-Link.com,2013-05-06 07:08:00,
2013-05-06 03:23:00,53.4,53.1,29.60,East,90,3.7,-999.0,99,-99.99,,,0.05,Acu-Link.com,2013-05-06 07:23:00,
2013-05-06 03:38:00,53.2,52.9,29.59,East,90,6.3,-999.0,99,-99.99,,,0.05,Acu-Link.com,2013-05-06 07:38:00,
2013-05-06 03:53:00,53.2,52.9,29.60,NE,45,3.2,-999.0,99,-99.99,,,0.05,Acu-Link.com,2013-05-06 07:53:00,
2013-05-06 04:09:00,53.2,52.9,29.59,East,90,4.7,-999.0,99,-99.99,,,0.05,Acu-Link.com,2013-05-06 08:09:00,
2013-05-06 04:24:00,53.2,52.9,29.59,ENE,67,5.3,-999.0,99,-99.99,,,0.05,Acu-Link.com,2013-05-06 08:24:00,
2013-05-06 04:39:00,53.2,52.9,29.60,East,90,6.8,-999.0,99,-99.99,,,0.08,Acu-Link.com,2013-05-06 08:39:00,
2013-05-06 04:54:00,53.1,52.8,29.60,ENE,67,3.2,-999.0,99,-99.99,,,0.10,Acu-Link.com,2013-05-06 08:54:00,
2013-05-06 05:09:00,53.1,52.8,29.59,NE,45,4.7,-999.0,99,-99.99,,,0.10,Acu-Link.com,2013-05-06 09:09:00,
2013-05-06 05:25:00,52.9,52.6,29.60,NE,45,5.3,-999.0,99,-99.99,,,0.11,Acu-Link.com,2013-05-06 09:25:00,
2013-05-06 05:40:00,53.1,52.8,29.60,NE,45,3.7,-999.0,99,-99.99,,,0.11,Acu-Link.com,2013-05-06 09:40:00,
2013-05-06 05:55:00,53.1,52.8,29.61,NNE,22,4.2,-999.0,99,-99.99,,,0.11,Acu-Link.com,2013-05-06 09:55:00,
2013-05-06 06:10:00,53.1,52.8,29.59,ENE,67,7.3,-999.0,99,-99.99,,,0.11,Acu-Link.com,2013-05-06 10:10:00,
2013-05-06 06:25:00,53.1,52.8,29.59,ESE,112,4.7,-999.0,99,-99.99,,,0.11,Acu-Link.com,2013-05-06 10:25:00,
2013-05-06 06:40:00,53.1,52.8,29.61,NE,45,6.8,-999.0,99,-99.99,,,0.11,Acu-Link.com,2013-05-06 10:40:00,
2013-05-06 06:55:00,53.1,52.8,29.61,ENE,67,5.3,-999.0,99,-99.99,,,0.12,Acu-Link.com,2013-05-06 10:55:00,
2013-05-06 07:11:00,53.1,52.8,29.62,NW,315,4.2,-999.0,99,-99.99,,,0.13,Acu-Link.com,2013-05-06 11:11:00,
2013-05-06 07:26:00,53.2,52.9,29.61,NE,45,3.7,-999.0,99,-99.99,,,0.13,Acu-Link.com,2013-05-06 11:26:00,
2013-05-06 07:41:00,53.4,53.1,29.62,ENE,67,3.7,-999.0,99,-99.99,,,0.13,Acu-Link.com,2013-05-06 11:41:00,
2013-05-06 07:56:00,53.4,53.1,29.63,West,270,2.7,-999.0,99,-99.99,,,0.13,Acu-Link.com,2013-05-06 11:56:00,
2013-05-06 08:12:00,52.0,51.7,29.65,South,180,4.2,-999.0,99,-99.99,,,0.14,Acu-Link.com,2013-05-06 12:12:00,
2013-05-06 08:27:00,50.9,50.6,29.66,SE,135,2.2,-999.0,99,-99.99,,,0.15,Acu-Link.com,2013-05-06 12:27:00,
2013-05-06 08:42:00,51.3,51.0,29.66,East,90,0.0,-999.0,99,-99.99,,,0.15,Acu-Link.com,2013-05-06 12:42:00,
2013-05-06 08:58:00,51.4,51.1,29.66,NE,45,0.0,-999.0,99,-99.99,,,0.15,Acu-Link.com,2013-05-06 12:58:00,
2013-05-06 09:13:00,51.6,51.3,29.66,NE,45,1.7,-999.0,99,-99.99,,,0.15,Acu-Link.com,2013-05-06 13:13:00,
2013-05-06 09:28:00,52.3,52.0,29.66,East,90,0.0,-999.0,99,-99.99,,,0.15,Acu-Link.com,2013-05-06 13:28:00,
2013-05-06 09:44:00,54.0,52.9,29.65,SSE,157,0.0,-999.0,96,-99.99,,,0.15,Acu-Link.com,2013-05-06 13:44:00,
2013-05-06 09:59:00,54.1,52.7,29.66,NE,45,3.2,-999.0,95,-99.99,,,0.15,Acu-Link.com,2013-05-06 13:59:00,
2013-05-06 10:14:00,54.7,54.1,29.67,East,90,3.2,-999.0,98,-99.99,,,0.15,Acu-Link.com,2013-05-06 14:14:00,
2013-05-06 10:29:00,53.6,52.5,29.66,NE,45,3.2,-999.0,96,-99.99,,,0.15,Acu-Link.com,2013-05-06 14:29:00,
2013-05-06 10:45:00,54.0,53.4,29.67,SSE,157,2.2,-999.0,98,-99.99,,,0.15,Acu-Link.com,2013-05-06 14:45:00,
2013-05-06 11:00:00,54.9,54.6,29.67,NNE,22,4.2,-999.0,99,-99.99,,,0.16,Acu-Link.com,2013-05-06 15:00:00,
2013-05-06 11:15:00,56.1,55.5,29.68,ENE,67,5.8,-999.0,98,-99.99,,,0.16,Acu-Link.com,2013-05-06 15:15:00,
2013-05-06 11:30:00,56.3,56.0,29.67,NE,45,6.8,-999.0,99,-99.99,,,0.16,Acu-Link.com,2013-05-06 15:30:00,
2013-05-06 11:46:00,57.6,57.0,29.67,ENE,67,3.7,-999.0,98,-99.99,,,0.16,Acu-Link.com,2013-05-06 15:46:00,
2013-05-06 12:01:00,57.2,56.4,29.66,NW,315,3.2,-999.0,97,-99.99,,,0.16,Acu-Link.com,2013-05-06 16:01:00,
2013-05-06 12:16:00,57.6,56.2,29.64,ENE,67,4.7,-999.0,95,-99.99,,,0.16,Acu-Link.com,2013-05-06 16:16:00,
2013-05-06 12:31:00,58.6,56.9,29.65,ENE,67,4.7,-999.0,94,-99.99,,,0.16,Acu-Link.com,2013-05-06 16:31:00,
2013-05-06 12:46:00,58.3,56.6,29.65,NNE,22,3.7,-999.0,94,-99.99,,,0.16,Acu-Link.com,2013-05-06 16:46:00,
2013-05-06 13:01:00,58.6,56.6,29.66,NNE,22,7.8,-999.0,93,-99.99,,,0.16,Acu-Link.com,2013-05-06 17:01:00,
2013-05-06 13:17:00,59.0,56.7,29.65,NE,45,5.3,-999.0,92,-99.99,,,0.16,Acu-Link.com,2013-05-06 17:17:00,
2013-05-06 13:32:00,60.6,57.3,29.65,ENE,67,5.8,-999.0,89,-99.99,,,0.16,Acu-Link.com,2013-05-06 17:32:00,
2013-05-06 13:47:00,61.2,57.9,29.65,East,90,8.9,-999.0,89,-99.99,,,0.16,Acu-Link.com,2013-05-06 17:47:00,
2013-05-06 14:03:00,62.4,58.2,29.65,ESE,112,7.3,-999.0,86,-99.99,,,0.16,Acu-Link.com,2013-05-06 18:03:00,
2013-05-06 14:18:00,63.0,57.8,29.65,ENE,67,5.3,-999.0,83,-99.99,,,0.16,Acu-Link.com,2013-05-06 18:18:00,
2013-05-06 14:33:00,63.3,58.4,29.65,East,90,6.3,-999.0,84,-99.99,,,0.16,Acu-Link.com,2013-05-06 18:33:00,
2013-05-06 14:48:00,63.5,57.9,29.64,NNE,22,4.7,-999.0,82,-99.99,,,0.16,Acu-Link.com,2013-05-06 18:48:00,
2013-05-06 15:03:00,62.6,56.7,29.64,ENE,67,7.3,-999.0,81,-99.99,,,0.16,Acu-Link.com,2013-05-06 19:03:00,
2013-05-06 15:18:00,64.8,58.1,29.63,NE,45,6.3,-999.0,79,-99.99,,,0.16,Acu-Link.com,2013-05-06 19:18:00,
2013-05-06 15:34:00,64.6,57.9,29.63,NNE,22,7.3,-999.0,79,-99.99,,,0.16,Acu-Link.com,2013-05-06 19:34:00,
2013-05-06 15:49:00,66.4,59.3,29.63,NE,45,6.8,-999.0,78,-99.99,,,0.16,Acu-Link.com,2013-05-06 19:49:00,
2013-05-06 16:04:00,65.8,58.0,29.63,NE,45,4.7,-999.0,76,-99.99,,,0.16,Acu-Link.com,2013-05-06 20:04:00,
2013-05-06 16:19:00,62.8,57.2,29.62,NE,45,4.7,-999.0,82,-99.99,,,0.16,Acu-Link.com,2013-05-06 20:19:00,
2013-05-06 16:34:00,65.5,58.1,29.61,ENE,67,9.4,-999.0,77,-99.99,,,0.16,Acu-Link.com,2013-05-06 20:34:00,
2013-05-06 16:50:00,63.1,56.8,29.60,NE,45,4.7,-999.0,80,-99.99,,,0.16,Acu-Link.com,2013-05-06 20:50:00,
2013-05-06 17:05:00,63.3,57.4,29.61,ENE,67,5.8,-999.0,81,-99.99,,,0.16,Acu-Link.com,2013-05-06 21:05:00,
2013-05-06 17:20:00,62.8,57.2,29.62,ENE,67,7.3,-999.0,82,-99.99,,,0.16,Acu-Link.com,2013-05-06 21:20:00,
2013-05-06 17:35:00,61.2,57.3,29.62,NNE,22,5.3,-999.0,87,-99.99,,,0.16,Acu-Link.com,2013-05-06 21:35:00,
2013-05-06 17:50:00,60.3,57.7,29.62,NE,45,5.3,-999.0,91,-99.99,,,0.17,Acu-Link.com,2013-05-06 21:50:00,
2013-05-06 18:06:00,60.4,57.8,29.64,ESE,112,4.7,-999.0,91,-99.99,,,0.17,Acu-Link.com,2013-05-06 22:06:00,
2013-05-06 18:21:00,54.7,51.8,29.65,NNE,22,3.7,-999.0,90,-99.99,,,0.18,Acu-Link.com,2013-05-06 22:21:00,
2013-05-06 18:36:00,54.5,51.9,29.65,West,270,3.7,-999.0,91,-99.99,,,0.18,Acu-Link.com,2013-05-06 22:36:00,
2013-05-06 18:51:00,54.1,52.4,29.65,WNW,292,3.2,-999.0,94,-99.99,,,0.18,Acu-Link.com,2013-05-06 22:51:00,
2013-05-06 19:06:00,54.5,53.1,29.65,ESE,112,0.0,-999.0,95,-99.99,,,0.18,Acu-Link.com,2013-05-06 23:06:00,
2013-05-06 19:21:00,54.0,52.9,29.64,NE,45,1.7,-999.0,96,-99.99,,,0.18,Acu-Link.com,2013-05-06 23:21:00,
2013-05-06 19:37:00,53.4,52.6,29.65,WNW,292,4.7,-999.0,97,-99.99,,,0.19,Acu-Link.com,2013-05-06 23:37:00,
2013-05-06 19:52:00,53.1,52.8,29.65,WNW,292,4.2,-999.0,99,-99.99,,,0.21,Acu-Link.com,2013-05-06 23:52:00,
2013-05-06 20:07:00,53.2,52.9,29.65,WSW,247,2.7,-999.0,99,-99.99,,,0.21,Acu-Link.com,2013-05-07 00:07:00,
2013-05-06 20:22:00,53.8,53.2,29.67,WSW,247,0.0,-999.0,98,-99.99,,,0.21,Acu-Link.com,2013-05-07 00:22:00,
2013-05-06 20:37:00,53.8,53.5,29.67,West,270,1.7,-999.0,99,-99.99,,,0.21,Acu-Link.com,2013-05-07 00:37:00,
2013-05-06 20:53:00,54.0,53.7,29.68,ESE,112,2.2,-999.0,99,-99.99,,,0.21,Acu-Link.com,2013-05-07 00:53:00,
2013-05-06 21:08:00,54.0,53.2,29.68,ESE,112,4.7,-999.0,97,-99.99,,,0.22,Acu-Link.com,2013-05-07 01:08:00,
2013-05-06 21:23:00,54.0,53.2,29.67,ESE,112,2.2,-999.0,97,-99.99,,,0.22,Acu-Link.com,2013-05-07 01:23:00,
2013-05-06 21:39:00,54.3,53.5,29.68,WNW,292,1.1,-999.0,97,-99.99,,,0.22,Acu-Link.com,2013-05-07 01:39:00,
2013-05-06 21:54:00,54.3,52.6,29.68,East,90,0.0,-999.0,94,-99.99,,,0.22,Acu-Link.com,2013-05-07 01:54:00,
2013-05-06 22:09:00,54.1,52.4,29.68,West,270,2.7,-999.0,94,-99.99,,,0.22,Acu-Link.com,2013-05-07 02:09:00,
2013-05-06 22:24:00,54.3,52.6,29.68,SW,225,0.0,-999.0,94,-99.99,,,0.22,Acu-Link.com,2013-05-07 02:24:00,
2013-05-06 22:39:00,54.3,52.9,29.69,SSW,202,0.0,-999.0,95,-99.99,,,0.22,Acu-Link.com,2013-05-07 02:39:00,
2013-05-06 22:55:00,54.3,52.9,29.69,West,270,3.7,-999.0,95,-99.99,,,0.22,Acu-Link.com,2013-05-07 02:55:00,
2013-05-06 23:10:00,54.5,53.4,29.69,South,180,2.2,-999.0,96,-99.99,,,0.22,Acu-Link.com,2013-05-07 03:10:00,
2013-05-06 23:25:00,54.5,53.4,29.68,SE,135,0.0,-999.0,96,-99.99,,,0.22,Acu-Link.com,2013-05-07 03:25:00,
2013-05-06 23:41:00,55.8,55.0,29.67,NE,45,4.2,-999.0,97,-99.99,,,0.22,Acu-Link.com,2013-05-07 03:41:00,
2013-05-06 23:56:00,55.8,55.0,29.66,East,90,3.7,-999.0,97,-99.99,,,0.22,Acu-Link.com,2013-05-07 03:56:00,